This is the latest recevied weather packets stored in our database for station/object KG5WBN. If no packets are shown the sender has not sent any weather packets the latest 10 day(s).
| Time | Temp. | Humidity | Pressure | Rain* | Wind** | Luminosity | Snow |
|---|---|---|---|---|---|---|---|
| 1787881115 | 26.67° C | 76% | 1013.2 hPa | 0 mm | - | 0 W/m² | - |
| 1787880811 | 27.22° C | 75% | 1013.2 hPa | 0 mm | - | 0 W/m² | - |
| 1787880510 | 27.22° C | 61% | 1012.9 hPa | 0 mm | - | 0 W/m² | - |
| 1787880208 | 27.22° C | 61% | 1012.9 hPa | 0 mm | - | 0 W/m² | - |
| 1787879904 | 27.22° C | 61% | 1012.9 hPa | 0 mm | - | 0 W/m² | - |
| 1787879599 | 26.67° C | 60% | 1012.9 hPa | 0 mm | - | 0 W/m² | - |
| 1787879294 | 26.67° C | 57% | 1012.9 hPa | 0 mm | - | 0 W/m² | - |
| 1787878991 | 26.67° C | 57% | 1012.5 hPa | 0 mm | - | 0 W/m² | - |
| 1787878690 | 26.67° C | 56% | 1012.9 hPa | 0 mm | - | 0 W/m² | - |
| 1787878385 | 26.67° C | 55% | 1012.5 hPa | 0 mm | - | 0 W/m² | - |
| 1787878081 | 26.67° C | 56% | 1012.5 hPa | 0 mm | - | 0 W/m² | - |
| 1787877776 | 26.67° C | 55% | 1012.2 hPa | 0 mm | - | 0 W/m² | - |
| 1787877472 | 26.67° C | 55% | 1012.2 hPa | 0 mm | - | 0 W/m² | - |
| 1787877168 | 27.22° C | 54% | 1012.2 hPa | 0 mm | - | 0 W/m² | - |
| 1787876867 | 27.22° C | 55% | 1012.2 hPa | 0 mm | - | 1 W/m² | - |
| 1787876563 | 27.22° C | 54% | 1012.2 hPa | 0 mm | - | 4 W/m² | - |
| 1787876262 | 27.78° C | 54% | 1012.5 hPa | 0 mm | - | 7 W/m² | - |
| 1787875961 | 27.78° C | 54% | 1012.2 hPa | 0 mm | - | 9 W/m² | - |
| 1787875656 | 27.78° C | 54% | 1012.2 hPa | 0 mm | - | 13 W/m² | - |
| 1787875355 | 27.78° C | 54% | 1012.2 hPa | 0 mm | - | 15 W/m² | - |
| 1787875053 | 27.78° C | 54% | 1012.2 hPa | 0 mm | - | 18 W/m² | - |
| 1787874749 | 27.78° C | 54% | 1012.2 hPa | 0 mm | - | 22 W/m² | - |
| 1787874447 | 27.78° C | 54% | 1012.5 hPa | 0 mm | - | 22 W/m² | - |
| 1787874142 | 27.78° C | 54% | 1012.5 hPa | 0 mm | - | 21 W/m² | - |
| 1787873838 | 27.78° C | 55% | 1012.2 hPa | 0 mm | - | 21 W/m² | - |
* Rain latest hour (hover to see other rain measurements)
** Current wind speed in m/s (hover to see current wind gust speed)